Find Starlink 36149

NORAD ID: 66969 Int'l Des: 2025-288 Owner: SPXS Country: US Constellation: starlink operational
LEOCIRCULAR

現在のビュー

3D地球を読み込み中...

Starlink 36149について

説明を読み込み中...

次回通過

Passes for default location (London). Set your location on the main map for personalized predictions.

高度履歴

Loading altitude history...

軌道要素

1 66969U 25288L 26145.84734486 .00016394 00000-0 60362-3 0 9996
2 66969 43.0038 308.0589 0001615 254.2034 105.8640 15.27597843 27084
Epoch: May 25, 2026 • Age: 22 hours

現在のステータス

高度 482.4 km
速度 7.63 km/s
衛星直下点 10.57°N, 154.41°E
打ち上げ日 Dec 8, 2025
運用期間 0.4 years
タイプ internet

技術仕様

分類 Payload
質量 575.00 kg
乾燥質量 530.00 kg
総質量 575.00 kg
長さ 0.30 m
直径 4.10 m
スパン 29.00 m
形状 Box + pan
製造者 SPXS
バスタイプ Starlink V2MO
フェーズステータス In Orbit
所有者/国 SPXS/US

Most Searched